Location: Johnson City
(36.3130°N, 82.3540°W)
Time: 06:11:29
(UTC-05:00)

Hubble Space Telescope - Visible Passes

Search period start: 13 December 2018 00:00
Search period end: 23 December 2018 00:00
Orbit: 537 x 540 km, 28.5° (Epoch: 13 December)

Date Brightness Start Highest point End Pass type
(mag) Time Alt. Az. Time Alt. Az. Time Alt. Az.
20 Dec 3.1 19:05:26 10° S 19:07:15 13° SSE 19:07:25 13° SSE visible
21 Dec 2.9 18:54:19 10° SSW 18:56:42 15° SSE 18:57:37 14° SSE visible
22 Dec 2.8 18:43:24 10° SSW 18:46:10 17° SSE 18:47:49 14° SE visible
